Find Starlink 34953

NORAD ID: 65240 Int'l Des: 2025-179 Owner: SPXS Country: US Constellation: starlink operational
LEOCIRCULARRETROGRADESSO

現在のビュー

3D地球を読み込み中...

About Starlink 34953

Starlink 34953 (NORAD 65240) is a starlink constellation satellite (v2 mini) launched Aug 18, 2025 by SPXS of US. It operates in LEO, CIRCULAR, RETROGRADE, SSO orbit with a mass of 575.00 kg.

次回通過

Passes for default location (London). Set your location on the main map for personalized predictions.

高度履歴

Loading altitude history...

軌道要素

1 65240U 25179F 26237.07223769 -.00000548 00000-0 -14640-4 0 9995
2 65240 97.2833 276.7891 0001285 98.7579 261.3809 15.33451551 57422
Epoch: Aug 25, 2026 • Age: 21 hours

現在のステータス

高度 476.5 km
遠地点 / 近地点 N/A
速度 7.63 km/s
衛星直下点 68.22°N, 163.38°E
打ち上げ日 Aug 18, 2025
運用期間 1 year
タイプ internet

技術仕様

分類 Payload
質量 575.00 kg
乾燥質量 530.00 kg
総質量 575.00 kg
長さ 0.30 m
直径 4.10 m
スパン 29.00 m
形状 Box + pan
製造者 SPXS
バスタイプ Starlink V2MO
フェーズステータス In Orbit
所有者/国 SPXS/US

Most Searched